Location: Unspecified
(0.0000°N, 0.0000°E)
Time: 11:51:32
(UTC+00:00)

Transit 2A - Pass Details

Date: 23 November 2019
Orbit: 602 x 957 km, 66.7° (Epoch: 07 December)

Event Time Altitude Azimuth Distance (km) Brightness Sun altitude
Rises 20:14:37 0° 18° (NNE) 2,968 - -34.4°
Reaches altitude 10° 20:18:22 10° 50° (NE) 2,135 - -35.2°
Maximum altitude 20:20:10 12° 72° (ENE) 2,045 - -35.6°
Drops below altitude 10° 20:22:02 10° 94° (E) 2,220 - -36.1°
Sets 20:26:07 0° 124° (SE) 3,246 - -37.0°
